{"data":{"norad_id":53208,"epoch":"2026-09-20T04:00:03.000096Z","epoch_age_seconds":101043,"freshness":"FRESH","line1":"1 53208U 22084V   26263.16670139  .00792809  00000+0  15557-1 0  9994","line2":"2 53208  97.2868 318.0105 0001371  88.3635  28.1318 15.44754023  5848","mean_motion":15.44754023,"eccentricity":0.0001371,"inclination_deg":97.2868,"raan_deg":318.0105,"arg_perigee_deg":88.3635,"mean_anomaly_deg":28.1318,"bstar":0.015557,"rev_number":584,"period_min":93.218724700483,"perigee_km":431.16723915845,"apogee_km":433.03460639688,"semimajor_km":6810.2379227777,"source":"CELESTRAK","updated_at":"2026-09-20T09:00:40.192545Z"}}